This demonstration page uses our WeatherBlox Daily Observations layout. Learn more.

39.29038, -76.61219

Hourly Observations for January 17, 2019

Temp ( °F °C ) Dew Point ( °F °C ) Humidity (%) Winds ( mph kmh ) Pressure ( in mb ) Visibility ( mi km ) Precip ( " mm )
12:54 am 00:54 Mostly Cloudy 36 2.2 25 -3.9 64 64 W 5 7 30.27 1025 10 16.09344 0 0
1:54 am 01:54 Cloudy 36 2.2 25 -3.9 64 64 W 5 7 30.27 1025 10 16.09344 0 0
2:54 am 02:54 Cloudy 36 2.2 25 -3.9 64 64 WSW 6 9 30.3 1026 10 16.09344 0 0
3:54 am 03:54 Cloudy 35 1.7 25 -3.9 67 67 W 5 7 30.3 1026 10 16.09344 0 0
4:54 am 04:54 Cloudy 35 1.7 25 -3.9 67 67 Calm 30.3 1026 10 16.09344 0 0
5:54 am 05:54 Cloudy 34 1.1 26 -3.3 73 73 Calm 30.3 1026 10 16.09344 0 0
6:54 am 06:54 Mostly Cloudy 35 1.7 23 -5 61 61 ENE 8 13 30.33 1027 10 16.09344 0 0
7:54 am 07:54 Cloudy 34 1.1 21 -6.1 59 59 VRB 5 7 30.36 1028 10 16.09344 0 0
8:54 am 08:54 Cloudy 34 1.1 19 -7.2 54 54 ENE 10 17 30.36 1028 10 16.09344 0 0
9:54 am 09:54 Cloudy 33 0.6 21 -6.1 61 61 ENE 10 17 30.39 1029 10 16.09344 0 0
10:54 am 10:54 Cloudy 33 0.6 23 -5 66 66 ENE 12 19 30.39 1029 10 16.09344 0 0
11:54 am 11:54 Cloudy 33 0.6 21 -6.1 61 61 E 9 15 30.36 1028 10 16.09344 0 0
12:54 pm 12:54 Cloudy 34 1.1 21 -6.1 59 59 E 8 13 30.3 1026 10 16.09344 0 0
1:54 pm 13:54 Cloudy 34 1.1 23 -5 64 64 E 8 13 30.27 1025 10 16.09344 0 0
2:54 pm 14:54 Cloudy 34 1.1 22 -5.6 61 61 ESE 7 11 30.27 1025 10 16.09344 0 0
3:54 pm 15:54 Cloudy 34 1.1 23 -5 64 64 ESE 8 13 30.27 1025 10 16.09344 0 0
4:54 pm 16:54 Cloudy 34 1.1 24 -4.4 67 67 E 7 11 30.24 1024 10 16.09344 0 0
5:54 pm 17:54 Cloudy 34 1.1 25 -3.9 70 70 E 8 13 30.24 1024 10 16.09344 0 0
6:54 pm 18:54 Cloudy with Light Snow 33 0.6 26 -3.3 75 75 E 7 11 30.24 1024 3 4.828032 0.001 0.001
6:56 pm 18:56 Partly Cloudy with Isolated Snow Showers 33 0.6 27 -2.8 78 78 E 7 11 30.27 1025 2 3.218688 0.001 0.001
7:10 pm 19:10 Cloudy with Light Snow 31 -0.6 28 -2.2 89 89 E 8 13 30.27 1025 1 1.609344 0.01 0.254
7:54 pm 19:54 Cloudy with Light Snow 31 -0.6 29 -1.7 92 92 E 6 9 30.21 1023 1 1.609344 0.03 0.762
8:38 pm 20:38 Cloudy with Light Snow 31 -0.6 29 -1.7 92 92 E 7 11 30.24 1024 2.5 4.02336 0.02 0.508
8:54 pm 20:54 Cloudy with Mist and Fog 31 -0.6 30 -1.1 96 96 E 6 9 30.21 1023 2.5 4.02336 0.02 0.508
9:10 pm 21:10 Cloudy with Light Snow 31 -0.6 30 -1.1 96 96 E 6 9 30.24 1024 2 3.218688 0.001 0.001
9:36 pm 21:36 Cloudy with Mist and Fog 31 -0.6 30 -1.1 96 96 E 6 9 30.24 1024 3 4.828032 0.001 0.001
9:54 pm 21:54 Cloudy with Light Snow 31 -0.6 30 -1.1 96 96 E 7 11 30.18 1022 3 4.828032 0.001 0.001
10:54 pm 22:54 Cloudy with Mist and Fog 31 -0.6 30 -1.1 96 96 E 6 9 30.18 1022 4 6.437376 0.001 0.001
11:10 pm 23:10 Cloudy with Light Snow 31 -0.6 30 -1.1 96 96 E 6 9 30.21 1023 1.5 2.414016 0.001 0.001
11:54 pm 23:54 Cloudy with Light Snow 31 -0.6 30 -1.1 96 96 E 6 9 30.18 1022 1 1.609344 0.01 0.254

Powered by AerisWeather